1488009600.09,58439,7.31,72614.8,-14.01,-18.11,-18.01,0,*66
1488009601.31,58440,7.31,72602.5,-14.03,-18.07,-18.07,0,*6B
1488009602.55,58441,7.31,72606.8,-14.05,-17.83,-17.69,0,*68
1488009603.79,58442,7.31,72604.3,-14.03,-16.83,-16.65,0,*61
1488009605.06,58443,7.31,72618.3,-14.03,-16.65,-16.51,0,*6F
1488009606.3,58444,7.31,72614.3,-14.03,-16.37,-16.23,0,*6A
1488009607.55,58445,7.31,72622.5,-14.01,-16.83,-16.75,0,*65
1488009608.79,58446,7.31,72630.0,-14.01,-16.97,-16.83,0,*6A
1488009610.02,58447,7.31,72628.8,-13.99,-16.83,-16.75,0,*61
1488009611.23,58448,7.31,72632.0,-13.99,-16.93,-16.79,0,*63
1488009612.46,58449,7.31,72628.0,-13.99,-16.83,-16.75,0,*6F
1488009613.71,58450,7.31,72620.8,-13.99,-16.79,-16.65,0,*63
1488009614.95,58451,7.25,72616.5,-13.99,-16.75,-16.65,0,*6E
1488009616.22,58452,7.31,72608.8,-13.95,-16.69,-16.55,0,*6F
1488009617.5,58453,7.31,72584.0,-13.95,-16.69,-16.55,0,*6E
1488009618.77,58454,7.31,72558.5,-13.95,-16.69,-16.59,0,*65
1488009620.04,58455,7.31,72540.0,-13.95,-16.03,-15.89,0,*66
1488009621.31,58456,7.31,72538.5,-13.95,-16.17,-16.03,0,*61
1488009622.6,58457,7.31,72560.3,-13.91,-16.27,-16.13,0,*66
1488009623.88,58458,7.31,72560.5,-13.91,-16.09,-15.95,0,*68
1488009625.13,58459,7.31,72558.5,-13.91,-15.95,-15.75,0,*61
1488009626.42,58460,7.31,72546.3,-13.87,-16.23,-16.17,0,*65
1488009627.71,58461,7.31,72564.0,-13.89,-16.13,-16.09,0,*66
1488009628.95,58462,7.31,72570.5,-13.87,-16.03,-15.95,0,*6C
1488009630.22,58463,7.31,72576.3,-13.87,-15.95,-15.81,0,*64
1488009631.48,58464,7.31,72582.0,-13.85,-15.89,-15.75,0,*67
1488009632.72,58465,7.31,72566.8,-13.85,-15.63,-15.57,0,*62
1488009633.95,58466,7.31,72570.0,-13.85,-15.63,-15.49,0,*6E
1488009635.24,58467,7.31,72582.8,-13.83,-15.01,-14.97,0,*6F
1488009636.48,58468,7.31,72582.8,-13.79,-15.11,-15.11,0,*6B
1488009637.76,58469,7.31,72564.8,-13.79,-14.97,-14.93,0,*6E
1488009639.03,58470,7.31,72598.5,-13.77,-14.83,-14.79,0,*69
1488009640.29,58471,7.25,72584.0,-13.75,-16.51,-16.45,0,*6A
1488009641.59,58472,7.31,72582.0,-13.75,-17.11,-17.07,0,*6B
1488009642.81,58473,7.31,72578.8,-13.77,-16.55,-16.55,0,*6F
1488009644.04,58474,7.31,72568.3,-13.77,-16.75,-16.59,0,*66
1488009645.28,58475,7.31,72538.0,-13.77,-17.11,-16.97,0,*66
1488009646.49,58476,7.31,72548.8,-13.77,-16.83,-16.89,0,*60
1488009647.76,58477,7.31,72544.0,-13.77,-17.55,-17.41,0,*6E
1488009648.98,58478,7.31,72546.3,-13.77,-16.75,-16.75,0,*64
1488009650.28,58479,7.31,72576.0,-13.79,-17.41,-17.25,0,*69
1488009651.5,58480,7.31,72574.8,-13.81,-17.35,-17.31,0,*6E
1488009652.77,58481,7.31,72570.8,-13.81,-17.03,-17.03,0,*6B
1488009654.02,58482,7.31,72562.8,-13.81,-16.17,-15.99,0,*6D
1488009655.27,58483,7.31,72550.5,-13.79,-15.49,-15.49,0,*6E
1488009656.55,58484,7.31,72542.0,-13.79,-14.97,-14.83,0,*6C
1488009657.82,58485,7.31,72540.3,-13.77,-14.93,-14.83,0,*67
1488009659.09,58486,7.31,72534.0,-13.75,-15.15,-14.93,0,*68
1488009660.35,58487,7.31,72534.3,-13.69,-14.83,-14.75,0,*62
1488009661.62,58488,7.31,72532.3,-13.69,-14.83,-14.83,0,*64
1488009662.88,58489,7.31,72536.8,-13.67,-14.97,-14.89,0,*64
1488009664.12,58490,7.31,72536.5,-13.65,-15.11,-14.97,0,*6E
1488009665.42,58491,7.31,72542.3,-13.67,-15.39,-15.39,0,*62
1488009666.68,58492,7.31,72554.0,-13.65,-14.93,-14.97,0,*67
1488009667.93,58493,7.31,72548.0,-13.65,-15.85,-15.95,0,*63
1488009669.16,58494,7.31,72552.3,-13.65,-15.57,-15.67,0,*66
1488009670.41,58495,7.31,72564.3,-13.61,-15.53,-15.63,0,*63
1488009671.68,58496,7.31,72572.8,-13.63,-16.09,-16.09,0,*61
1488009672.96,58497,7.31,72578.5,-13.63,-15.39,-15.39,0,*60
1488009674.25,58498,7.31,72584.3,-13.61,-15.43,-15.35,0,*6C
1488009675.53,58499,7.31,72576.8,-13.59,-16.09,-16.17,0,*68
1488009676.77,58500,7.31,72556.8,-13.59,-16.41,-16.51,0,*67
1488009678.05,58501,7.31,72542.3,-13.59,-16.17,-16.17,0,*67
1488009679.32,58502,7.31,72530.5,-13.61,-16.41,-16.31,0,*68
1488009680.56,58503,7.31,72526.5,-13.61,-16.03,-15.95,0,*62
1488009681.8,58504,7.31,72526.0,-13.59,-15.81,-15.67,0,*6A
1488009683.05,58505,7.31,72518.8,-13.59,-15.95,-15.89,0,*6E
1488009684.29,58506,7.31,72520.5,-13.59,-15.81,-15.63,0,*6C
1488009685.51,58507,7.31,72526.0,-13.59,-15.53,-15.53,0,*61
1488009686.79,58508,7.31,72518.5,-13.57,-15.57,-15.49,0,*6F
1488009688.08,58509,7.31,72528.5,-13.57,-15.43,-15.49,0,*6B
1488009689.38,58510,7.31,72532.8,-13.57,-15.89,-15.89,0,*69
1488009690.68,58511,7.31,72532.8,-13.57,-16.17,-16.17,0,*68
1488009691.95,58512,7.31,72534.5,-13.55,-16.13,-16.13,0,*69
1488009693.17,58513,7.31,72530.3,-13.55,-16.59,-16.59,0,*68
1488009694.41,58514,7.31,72536.3,-13.59,-16.37,-16.31,0,*65
1488009695.66,58515,7.31,72544.3,-13.57,-15.71,-15.63,0,*6F
1488009696.91,58516,7.31,72546.0,-13.55,-15.89,-15.71,0,*6A
1488009698.13,58517,7.31,72546.0,-13.55,-15.29,-15.25,0,*60
1488009699.35,58518,7.31,72552.3,-13.55,-15.25,-15.15,0,*60
1488009700.56,58519,7.31,72554.0,-13.55,-15.15,-15.11,0,*66
1488009701.82,58520,7.31,72558.0,-13.53,-15.21,-15.07,0,*6A
1488009703.08,58521,7.31,72564.0,-13.53,-15.21,-15.07,0,*6B
1488009704.36,58522,7.31,72548.8,-13.49,-15.53,-15.39,0,*6B
1488009705.62,58523,7.31,72538.5,-13.47,-15.35,-15.21,0,*6D
1488009706.89,58524,7.31,72554.0,-13.49,-15.25,-15.21,0,*65
1488009708.14,58525,7.31,72560.8,-13.47,-15.29,-15.21,0,*66
1488009709.37,58526,7.31,72564.8,-13.47,-15.21,-15.15,0,*6A
1488009710.66,58527,7.31,72594.3,-13.45,-15.21,-15.21,0,*6E
1488009711.91,58528,7.31,72594.0,-13.45,-15.53,-15.49,0,*6A
1488009713.21,58529,7.31,72574.0,-13.45,-16.17,-16.17,0,*60
1488009714.47,58530,7.31,72570.8,-13.43,-16.23,-16.17,0,*69
1488009715.74,58531,7.31,72572.5,-13.45,-16.03,-15.89,0,*68
1488009716.99,58532,7.31,72584.0,-13.45,-15.75,-15.75,0,*6A
1488009718.24,58533,7.31,72578.5,-13.43,-15.53,-15.39,0,*61
1488009719.48,58534,7.31,72572.0,-13.45,-15.63,-15.67,0,*68
1488009720.72,58535,7.31,72568.8,-13.43,-15.49,-15.39,0,*6C
1488009721.93,58536,7.31,72590.3,-13.43,-15.63,-15.63,0,*68
1488009723.18,58537,7.31,72592.8,-13.43,-15.49,-15.39,0,*6E
1488009724.47,58538,7.31,72588.3,-13.45,-15.39,-15.35,0,*6C
1488009725.72,58539,7.31,72594.0,-13.41,-15.75,-15.75,0,*65
1488009726.97,58540,7.31,72598.0,-13.43,-15.89,-15.75,0,*6A
1488009728.19,58541,7.31,72594.8,-13.43,-15.49,-15.29,0,*6E
1488009729.47,58542,7.31,72594.5,-13.41,-15.35,-15.29,0,*64
1488009730.72,58543,7.31,72596.8,-13.41,-15.29,-15.29,0,*68
1488009731.98,58544,7.31,72598.3,-13.37,-15.21,-15.11,0,*6D
1488009733.23,58545,7.31,72594.5,-13.41,-15.15,-15.15,0,*6E
1488009734.48,58546,7.31,72592.3,-13.37,-15.29,-15.25,0,*60
1488009735.72,58547,7.31,72590.0,-13.37,-15.11,-15.11,0,*6D
1488009736.96,58548,7.31,72588.0,-13.37,-15.07,-15.07,0,*62
1488009738.2,58549,7.31,72590.8,-13.35,-14.79,-14.89,0,*6E
1488009739.46,58550,7.31,72592.0,-13.35,-15.01,-15.01,0,*69
1488009740.72,58551,7.31,72588.8,-13.35,-15.01,-14.93,0,*62
1488009741.96,58552,7.31,72586.0,-13.33,-15.15,-15.07,0,*6E
1488009743.23,58553,7.31,72590.0,-13.29,-15.01,-14.89,0,*66
1488009744.51,58554,7.31,72606.0,-13.33,-14.93,-14.75,0,*63
1488009745.76,58555,7.31,72604.0,-13.27,-14.97,-14.89,0,*60
1488009747.04,58556,7.31,72604.0,-13.29,-15.01,-14.97,0,*6C
1488009748.33,58557,7.31,72610.0,-13.29,-15.01,-14.97,0,*6D
1488009749.59,58558,7.31,72610.8,-13.29,-15.11,-15.01,0,*6D
1488009750.81,58559,7.31,72612.5,-13.27,-14.89,-14.89,0,*63
1488009752.04,58560,7.31,72614.3,-13.27,-15.15,-15.15,0,*69
1488009753.31,58561,7.31,72616.5,-13.25,-15.29,-15.35,0,*67
1488009754.58,58562,7.31,72616.5,-13.25,-15.35,-15.49,0,*62
1488009755.83,58563,7.31,72618.3,-13.25,-15.71,-15.75,0,*6C
1488009757.05,58564,7.31,72630.0,-13.27,-15.71,-15.71,0,*6D
1488009758.32,58565,7.31,72624.5,-13.25,-15.49,-15.57,0,*61
1488009759.62,58566,7.31,72626.8,-13.25,-16.17,-16.17,0,*6D
1488009760.89,58567,7.31,72630.3,-13.25,-16.03,-16.17,0,*69
1488009762.14,58568,7.31,72632.5,-13.27,-16.59,-16.65,0,*6E
1488009763.39,58569,7.31,72634.3,-13.27,-16.03,-16.17,0,*65
1488009764.67,58570,7.31,72630.0,-13.27,-16.09,-16.09,0,*68
1488009765.91,58571,7.31,72634.5,-13.25,-16.03,-16.03,0,*6B
1488009767.19,58572,7.31,72630.8,-13.27,-16.09,-16.23,0,*62
1488009768.42,58573,7.31,72626.3,-13.27,-15.75,-15.75,0,*6B
1488009769.7,58574,7.31,72620.0,-13.27,-16.09,-16.09,0,*6C
1488009770.92,58575,7.31,72612.5,-13.27,-16.37,-16.37,0,*6D
1488009772.18,58576,7.31,72604.0,-13.27,-16.31,-16.31,0,*6E
1488009773.43,58577,7.31,72600.5,-13.27,-16.37,-16.31,0,*69
1488009774.7,58578,7.31,72608.3,-13.27,-16.31,-16.23,0,*63
1488009775.99,58579,7.31,72608.5,-13.29,-16.23,-16.09,0,*67
1488009777.27,58580,7.31,72610.0,-13.29,-16.09,-15.99,0,*63
1488009778.51,58581,7.31,72606.8,-13.27,-16.17,-16.03,0,*63
1488009779.77,58582,7.31,72606.3,-13.25,-15.99,-15.89,0,*66
1488009781.02,58583,7.31,72608.3,-13.27,-16.45,-16.31,0,*67
1488009782.27,58584,7.31,72618.3,-13.29,-15.75,-15.63,0,*6A
1488009783.55,58585,7.31,72618.3,-13.25,-15.01,-14.97,0,*6E
1488009784.8,58586,7.31,72614.3,-13.25,-15.15,-15.15,0,*63
1488009786.09,58587,7.31,72614.3,-13.25,-15.35,-15.35,0,*62
1488009787.31,58588,7.31,72616.3,-13.23,-15.25,-15.11,0,*6C
1488009788.54,58589,7.31,72626.8,-13.23,-15.29,-15.25,0,*66
1488009789.76,58590,7.31,72634.5,-13.23,-15.25,-15.15,0,*61
1488009791.0,58591,7.31,72636.0,-13.21,-15.67,-15.67,0,*61
1488009792.29,58592,7.31,72640.0,-13.21,-15.81,-15.81,0,*62
1488009793.56,58593,7.31,72644.8,-13.21,-15.81,-15.71,0,*6C
1488009794.82,58594,7.31,72614.3,-13.21,-15.95,-15.85,0,*65
1488009796.07,58595,7.31,72602.8,-13.21,-16.03,-16.03,0,*65
1488009797.31,58596,7.31,72588.8,-13.21,-16.03,-15.99,0,*66
1488009798.6,58597,7.31,72582.5,-13.21,-16.17,-16.13,0,*63
1488009799.87,58598,7.31,72572.5,-13.21,-15.67,-15.57,0,*6B
1488009801.09,58599,7.31,72584.5,-13.19,-15.53,-15.49,0,*69
1488009802.32,58600,7.31,72584.8,-13.19,-15.75,-15.75,0,*61
1488009803.58,58601,7.31,72584.5,-13.19,-16.51,-16.51,0,*60
1488009804.85,58602,7.31,72582.3,-13.21,-16.17,-15.99,0,*6D
1488009806.1,58603,7.31,72584.8,-13.21,-15.95,-15.95,0,*69
1488009807.34,58604,7.31,72590.0,-13.21,-15.95,-15.95,0,*6E
1488009808.64,58605,7.31,72590.8,-13.21,-15.85,-15.85,0,*6F
1488009809.89,58606,7.31,72592.5,-13.19,-16.09,-15.95,0,*61
1488009811.11,58607,7.31,72594.8,-13.19,-15.63,-15.53,0,*65
1488009812.36,58608,7.31,72610.8,-13.19,-15.75,-15.81,0,*62
1488009813.65,58609,7.25,72614.0,-13.21,-16.27,-16.31,0,*64
1488009814.94,58610,7.31,72618.8,-13.21,-16.27,-16.13,0,*6C
1488009816.21,58611,7.31,72614.5,-13.21,-16.13,-16.03,0,*6B
1488009817.51,58612,7.31,72604.0,-13.21,-16.17,-16.13,0,*6D
1488009818.8,58613,7.25,72590.3,-13.21,-17.17,-17.17,0,*68
1488009820.05,58614,7.31,72600.3,-13.23,-17.45,-17.49,0,*61
1488009821.28,58615,7.31,72592.0,-13.23,-16.75,-16.75,0,*6C
1488009822.5,58616,7.31,72614.0,-13.23,-16.55,-16.59,0,*63
1488009823.73,58617,7.31,72616.0,-13.23,-16.75,-16.75,0,*6E
1488009824.95,58618,7.31,72614.8,-13.23,-16.59,-16.55,0,*6D
1488009826.18,58619,7.31,72622.3,-13.25,-15.99,-15.99,0,*66
1488009827.43,58620,7.31,72624.8,-13.23,-15.67,-15.57,0,*69
1488009828.68,58621,7.31,72622.0,-13.27,-15.75,-15.85,0,*60
1488009829.98,58622,7.31,72622.3,-13.25,-15.89,-15.89,0,*6E
1488009831.24,58623,7.31,72622.0,-13.25,-15.63,-15.57,0,*68
1488009832.49,58624,7.31,72622.3,-13.23,-15.53,-15.43,0,*6F
1488009833.76,58625,7.31,72618.8,-13.23,-15.57,-15.57,0,*6F
1488009835.01,58626,7.31,72626.0,-13.23,-15.95,-15.81,0,*69
1488009836.25,58627,7.31,72630.8,-13.21,-15.71,-15.67,0,*68
1488009837.54,58628,7.31,72626.0,-13.21,-15.43,-15.43,0,*60
1488009838.76,58629,7.25,72612.0,-13.19,-15.63,-15.67,0,*6E
1488009839.97,58630,7.31,72602.3,-13.15,-16.03,-16.03,0,*6E
1488009841.27,58631,7.31,72612.3,-13.21,-16.17,-16.17,0,*68
1488009842.57,58632,7.31,72628.0,-13.21,-16.17,-16.17,0,*6B
1488009843.85,58633,7.31,72638.0,-13.23,-16.13,-16.17,0,*6C
1488009845.09,58634,7.31,72618.8,-13.21,-16.89,-16.83,0,*67
1488009846.38,58635,7.31,72616.5,-13.21,-17.79,-17.79,0,*6C
1488009847.67,58636,7.31,72632.3,-13.25,-17.93,-17.97,0,*6F
1488009848.93,58637,7.31,72626.5,-13.27,-17.25,-17.35,0,*69
1488009850.21,58638,7.31,72622.0,-13.25,-17.63,-17.63,0,*65
1488009851.51,58639,7.31,72616.0,-13.29,-17.41,-17.41,0,*68
1488009852.77,58640,7.31,72616.5,-13.29,-17.63,-17.69,0,*6C
1488009854.01,58641,7.31,72620.8,-13.29,-18.11,-18.17,0,*61
1488009855.25,58642,7.31,72606.3,-13.35,-18.59,-18.65,0,*66
1488009856.54,58643,7.31,72610.8,-13.37,-18.55,-18.55,0,*6A
1488009857.78,58644,7.31,72606.5,-13.37,-18.11,-18.11,0,*6D
1488009859.05,58645,7.31,72600.0,-13.37,-17.79,-17.87,0,*6D
1488009860.34,58646,7.31,72604.8,-13.41,-17.55,-17.55,0,*6E
1488009861.58,58647,7.31,72620.3,-13.41,-17.69,-17.69,0,*6F
1488009862.85,58648,7.31,72616.8,-13.43,-17.45,-17.45,0,*62
1488009864.09,58649,7.31,72618.3,-13.45,-16.93,-16.79,0,*61
1488009865.34,58650,7.31,72618.5,-13.43,-16.55,-16.51,0,*6F
1488009866.58,58651,7.31,72626.5,-13.41,-16.89,-16.89,0,*68
1488009867.82,58652,7.31,72618.8,-13.45,-16.97,-16.83,0,*6A
1488009869.04,58653,7.31,72612.3,-13.43,-16.83,-16.83,0,*68
1488009870.28,58654,7.31,72608.8,-13.43,-17.25,-17.31,0,*6A
1488009871.57,58655,7.31,72612.3,-13.45,-17.41,-17.55,0,*6D
1488009872.87,58656,7.31,72594.0,-13.45,-17.45,-17.55,0,*6A
1488009874.1,58657,7.31,72604.3,-13.45,-17.31,-17.31,0,*6A
1488009875.37,58658,7.31,72608.3,-13.45,-17.25,-17.31,0,*60
1488009876.63,58659,7.31,72614.0,-13.47,-17.21,-17.25,0,*62
1488009877.84,58660,7.31,72612.8,-13.47,-16.97,-16.93,0,*68
1488009879.09,58661,7.31,72606.3,-13.49,-16.89,-16.79,0,*6C
1488009880.35,58662,7.31,72594.3,-13.49,-17.25,-17.31,0,*65
1488009881.64,58663,7.31,72580.5,-13.49,-17.59,-17.63,0,*68
1488009882.91,58664,7.31,72578.0,-13.49,-17.87,-17.93,0,*63
1488009884.19,58665,7.31,72570.8,-13.49,-17.93,-17.93,0,*67
1488009885.49,58666,7.31,72558.3,-13.53,-17.93,-18.01,0,*6B
1488009886.75,58667,7.31,72544.5,-13.55,-17.93,-17.93,0,*68
1488009888.04,58668,7.31,72554.3,-13.57,-17.79,-17.93,0,*61
1488009889.28,58669,7.31,72546.0,-13.59,-17.59,-17.69,0,*69
1488009890.52,58670,7.31,72554.0,-13.59,-17.83,-17.93,0,*63
1488009891.8,58671,7.31,72546.3,-13.59,-18.01,-17.97,0,*63
1488009893.01,58672,7.31,72542.8,-13.59,-17.69,-17.73,0,*6B
1488009894.28,58673,7.31,72556.8,-13.61,-16.51,-16.55,0,*6E
1488009895.54,58674,7.31,72570.8,-13.59,-16.31,-16.31,0,*66
1488009896.82,58675,7.31,72572.3,-13.59,-16.17,-16.17,0,*67
1488009898.06,58676,7.31,72584.8,-13.59,-16.41,-16.51,0,*65
1488009899.3,58677,7.31,72582.5,-13.57,-16.89,-16.93,0,*60
1488009900.61,58678,7.31,72562.8,-13.57,-17.03,-17.03,0,*64
1488009901.85,58679,7.31,72548.8,-13.59,-17.35,-17.25,0,*6A
1488009903.12,58680,7.31,72568.8,-13.59,-17.59,-17.59,0,*6D
1488009904.34,58681,7.31,72578.3,-13.59,-17.83,-17.73,0,*63
1488009905.61,58682,7.31,72566.8,-13.61,-17.35,-17.41,0,*67
1488009906.88,58683,7.31,72550.5,-13.63,-17.17,-17.25,0,*66
1488009908.12,58684,7.31,72540.8,-13.63,-17.49,-17.63,0,*68
1488009909.39,58685,7.31,72576.3,-13.61,-18.17,-18.31,0,*67
1488009910.64,58686,7.31,72546.5,-13.63,-18.21,-18.35,0,*67
1488009911.92,58687,7.31,72538.5,-13.67,-17.79,-17.93,0,*63
1488009913.21,58688,7.31,72548.5,-13.67,-17.79,-17.97,0,*68
1488009914.47,58689,7.31,72540.0,-13.67,-18.55,-18.69,0,*66
1488009915.76,58690,7.31,72530.5,-13.71,-18.89,-18.93,0,*6D
1488009916.99,58691,7.31,72566.5,-13.71,-18.11,-18.17,0,*61
1488009918.22,58692,7.31,72564.0,-13.71,-17.73,-17.69,0,*6F
1488009919.49,58693,7.31,72568.5,-13.71,-17.49,-17.41,0,*6D
1488009920.75,58694,7.31,72568.8,-13.71,-17.59,-17.69,0,*61
1488009922.01,58695,7.31,72592.8,-13.77,-17.55,-17.45,0,*64
1488009923.22,58696,7.31,72604.3,-13.77,-17.31,-17.31,0,*66
1488009924.49,58697,7.31,72606.0,-13.75,-17.49,-17.41,0,*6D
1488009925.72,58698,7.31,72602.0,-13.75,-18.25,-18.25,0,*6A
1488009926.94,58699,7.31,72594.3,-13.77,-18.49,-18.49,0,*69
1488009928.21,58700,7.31,72590.3,-13.79,-17.87,-18.01,0,*67
1488009929.5,58701,7.31,72586.0,-13.79,-17.59,-17.45,0,*6A
1488009930.74,58702,7.31,72586.0,-13.79,-16.89,-16.83,0,*6E
1488009932.05,58703,7.31,72572.5,-13.79,-16.13,-16.09,0,*6E
1488009933.35,58704,7.31,72562.8,-13.79,-16.13,-16.09,0,*69
1488009934.62,58705,7.31,72586.8,-13.77,-16.13,-16.13,0,*6D
1488009935.91,58706,7.31,72598.5,-13.75,-16.23,-16.31,0,*6F
1488009937.2,58707,7.31,72580.0,-13.75,-16.69,-16.69,0,*6D
1488009938.49,58708,7.31,72566.5,-13.71,-16.31,-16.17,0,*62
1488009939.77,58709,7.31,72566.5,-13.71,-16.31,-16.23,0,*64
1488009940.98,58710,7.31,72564.5,-13.69,-16.37,-16.37,0,*66
1488009942.22,58711,7.31,72564.8,-13.69,-16.37,-16.31,0,*61
1488009943.45,58712,7.31,72574.5,-13.71,-16.45,-16.37,0,*68
1488009944.72,58713,7.31,72578.3,-13.69,-16.27,-16.27,0,*65
1488009945.99,58714,7.31,72582.0,-13.69,-16.13,-16.17,0,*66
1488009947.26,58715,7.31,72590.5,-13.69,-16.13,-16.17,0,*67
1488009948.56,58716,7.31,72598.3,-13.67,-16.13,-16.17,0,*6A
1488009949.85,58717,7.31,72606.5,-13.67,-15.85,-15.89,0,*63
1488009951.1,58718,7.31,72610.5,-13.65,-15.57,-15.53,0,*66
1488009952.37,58719,7.31,72614.3,-13.65,-15.85,-15.85,0,*63
1488009953.63,58720,7.31,72604.0,-13.63,-16.27,-16.27,0,*6F
1488009954.9,58721,7.31,72608.8,-13.63,-16.23,-16.23,0,*6E
1488009956.19,58722,7.31,72610.8,-13.61,-15.89,-15.89,0,*6F
1488009957.44,58723,7.31,72612.5,-13.63,-15.95,-15.85,0,*6D
1488009958.73,58724,7.31,72608.5,-13.61,-15.89,-15.89,0,*69
1488009960.0,58725,7.31,72616.0,-13.61,-16.09,-16.03,0,*62
1488009961.28,58726,7.31,72616.3,-13.61,-16.09,-16.03,0,*61
1488009962.52,58727,7.31,72618.0,-13.59,-16.23,-16.03,0,*63
1488009963.76,58728,7.31,72622.8,-13.59,-15.95,-15.85,0,*6F
1488009964.98,58729,7.31,72618.8,-13.59,-15.67,-15.63,0,*6B
1488009966.23,58730,7.31,72622.3,-13.57,-15.63,-15.63,0,*69
1488009967.48,58731,7.31,72622.8,-13.57,-15.71,-15.71,0,*68
1488009968.73,58732,7.31,72626.0,-13.53,-15.53,-15.53,0,*6F
1488009969.95,58733,7.31,72628.3,-13.55,-15.49,-15.49,0,*68
1488009971.19,58734,7.31,72630.3,-13.53,-15.67,-15.67,0,*69
1488009972.46,58735,7.31,72634.3,-13.53,-15.57,-15.53,0,*6C
1488009973.73,58736,7.31,72634.0,-13.49,-15.85,-15.95,0,*61
1488009974.97,58737,7.31,72632.3,-13.53,-16.59,-16.59,0,*6A
1488009976.22,58738,7.31,72632.5,-13.49,-16.59,-16.55,0,*62
1488009977.49,58739,7.31,72632.3,-13.49,-15.95,-15.85,0,*6E
1488009978.76,58740,7.31,72630.5,-13.49,-15.53,-15.43,0,*60
1488009980.0,58741,7.31,72630.3,-13.49,-15.71,-15.67,0,*67
1488009981.24,58742,7.31,72632.0,-13.49,-15.99,-15.95,0,*6F
1488009982.49,58743,7.31,72632.5,-13.47,-16.09,-16.03,0,*66
1488009983.71,58744,7.31,72636.8,-13.47,-15.49,-15.49,0,*6B
1488009984.96,58745,7.31,72636.8,-13.47,-15.39,-15.49,0,*6D
1488009986.21,58746,7.31,72630.5,-13.47,-15.75,-15.81,0,*62
1488009987.5,58747,7.31,72638.5,-13.45,-15.35,-15.35,0,*6A
1488009988.75,58748,7.31,72636.5,-13.45,-15.53,-15.49,0,*6E
1488009990.0,58749,7.31,72646.5,-13.43,-15.35,-15.53,0,*62
1488009991.22,58750,7.31,72648.8,-13.43,-15.29,-15.29,0,*6A
1488009992.52,58751,7.31,72650.5,-13.41,-15.35,-15.35,0,*69
1488009993.77,58752,7.31,72652.0,-13.41,-15.29,-15.29,0,*6A
1488009995.05,58753,7.31,72668.0,-13.41,-15.35,-15.29,0,*66
1488009996.29,58754,7.31,72660.5,-13.37,-15.67,-15.67,0,*6D
1488009997.52,58755,7.31,72650.8,-13.37,-16.45,-16.45,0,*6C
1488009998.82,58756,7.31,72640.0,-13.37,-16.17,-16.17,0,*6F
1488010000.12,58757,7.31,72644.3,-13.41,-16.23,-16.17,0,*68
1488010001.41,58758,7.31,72638.3,-13.41,-16.23,-16.31,0,*63
1488010002.71,58759,7.31,72636.3,-13.41,-17.03,-17.07,0,*65
1488010003.99,58760,7.31,72630.3,-13.41,-17.21,-17.35,0,*6E
1488010005.26,58761,7.31,72626.0,-13.41,-17.41,-17.49,0,*62
1488010006.53,58762,7.31,72622.8,-13.43,-17.55,-17.55,0,*6B
1488010007.76,58763,7.31,72620.0,-13.43,-17.31,-17.41,0,*6D
1488010009.03,58764,7.31,72608.5,-13.43,-17.59,-17.55,0,*61
1488010010.3,58765,7.31,72596.5,-13.47,-17.45,-17.55,0,*69
1488010011.57,58766,7.31,72594.0,-13.47,-17.21,-17.11,0,*68
1488010012.84,58767,7.31,72606.0,-13.47,-16.17,-16.17,0,*6A
1488010014.11,58768,7.31,72606.8,-13.47,-16.23,-16.23,0,*65
1488010015.38,58769,7.31,72610.0,-13.47,-16.27,-16.27,0,*64
1488010016.62,58770,7.31,72604.5,-13.47,-16.41,-16.27,0,*6C
1488010017.89,58771,7.31,72610.0,-13.47,-16.23,-16.23,0,*6D
1488010019.18,58772,7.31,72604.3,-13.45,-16.69,-16.65,0,*60
1488010020.45,58773,7.31,72604.5,-13.47,-16.69,-16.69,0,*6F
1488010021.69,58774,7.31,72602.5,-13.47,-16.51,-16.37,0,*68
1488010022.91,58775,7.31,72596.0,-13.47,-16.41,-16.41,0,*69
1488010024.18,58776,7.31,72596.0,-13.45,-16.09,-16.03,0,*62
1488010025.42,58777,7.31,72600.3,-13.43,-16.37,-16.27,0,*6E
1488010026.67,58778,7.31,72606.5,-13.45,-16.97,-16.83,0,*63
1488010027.93,58779,7.31,72594.5,-13.45,-16.79,-16.65,0,*6A
1488010029.23,58780,7.31,72600.0,-13.45,-16.69,-16.65,0,*6D
1488010030.47,58781,7.31,72596.5,-13.45,-16.79,-16.79,0,*60
1488010031.76,58782,7.31,72602.3,-13.45,-17.25,-17.25,0,*63
1488010033.0,58783,7.31,72584.8,-13.47,-17.25,-17.31,0,*65
1488010034.25,58784,7.31,72588.8,-13.49,-17.87,-17.87,0,*69
1488010035.54,58785,7.31,72580.5,-13.53,-18.01,-18.01,0,*63
1488010036.83,58786,7.31,72576.8,-13.53,-17.11,-17.03,0,*63
1488010038.1,58787,7.31,72562.8,-13.53,-16.69,-16.59,0,*62
1488010039.39,58788,7.31,72566.8,-13.53,-16.31,-16.23,0,*6D
1488010040.6,58789,7.31,72578.3,-13.55,-16.93,-16.93,0,*69
1488010041.86,58790,7.31,72582.3,-13.55,-17.03,-17.03,0,*61
1488010043.1,58791,7.31,72582.5,-13.53,-16.89,-16.97,0,*69
1488010044.35,58792,7.31,72576.3,-13.53,-16.89,-16.75,0,*66
1488010045.59,58793,7.31,72570.0,-13.55,-16.59,-16.51,0,*6A
1488010046.86,58794,7.31,72572.8,-13.53,-16.69,-16.59,0,*60
1488010048.07,58795,7.31,72576.5,-13.55,-16.45,-16.45,0,*64
1488010049.28,58796,7.31,72594.0,-13.55,-15.99,-15.95,0,*6B
1488010050.52,58797,7.31,72594.5,-13.53,-15.67,-15.67,0,*60
1488010051.79,58798,7.31,72588.3,-13.53,-15.81,-15.71,0,*60
1488010053.02,58799,7.31,72598.8,-13.49,-15.71,-15.67,0,*62
1488010054.31,58800,7.31,72610.3,-13.49,-16.23,-16.13,0,*69
1488010055.55,58801,7.31,72608.5,-13.49,-15.99,-15.99,0,*6B
1488010056.82,58802,7.31,72616.0,-13.49,-16.41,-16.27,0,*68
1488010058.07,58803,7.31,72588.8,-13.49,-16.55,-16.55,0,*69
1488010059.34,58804,7.31,72596.5,-13.47,-16.69,-16.65,0,*6C
1488010060.58,58805,7.31,72588.8,-13.49,-16.89,-16.83,0,*65
1488010061.83,58806,7.31,72584.0,-13.49,-16.75,-16.59,0,*62
1488010063.1,58807,7.31,72604.3,-13.49,-16.41,-16.31,0,*6A
1488010064.34,58808,7.31,72582.8,-13.49,-16.89,-16.83,0,*68
1488010065.59,58809,7.31,72586.3,-13.49,-16.89,-16.83,0,*69
1488010066.83,58810,7.31,72600.3,-13.49,-16.41,-16.45,0,*6F
1488010068.07,58811,7.31,72604.3,-13.49,-16.55,-16.55,0,*6A
1488010069.32,58812,7.31,72586.3,-13.49,-16.89,-16.83,0,*63
1488010070.57,58813,7.31,72606.5,-13.49,-16.75,-16.75,0,*68
1488010071.81,58814,7.31,72612.5,-13.53,-16.41,-16.45,0,*60
1488010073.08,58815,7.31,72614.5,-13.53,-16.69,-16.55,0,*6A
1488010074.35,58816,7.31,72614.3,-13.53,-16.41,-16.27,0,*66
1488010075.6,58817,7.31,72622.3,-13.53,-16.75,-16.59,0,*69
1488010076.84,58818,7.31,72618.5,-13.53,-17.31,-17.35,0,*6C
1488010078.13,58819,7.31,72608.5,-13.53,-18.01,-18.01,0,*69
1488010079.37,58820,7.31,72610.3,-13.55,-17.83,-17.93,0,*64
1488010080.64,58821,7.31,72626.0,-13.57,-16.75,-16.65,0,*67
1488010081.91,58822,7.31,72628.3,-13.57,-16.45,-16.51,0,*60
1488010083.21,58823,7.31,72646.8,-13.53,-16.27,-16.27,0,*60
1488010084.47,58824,7.31,72630.8,-13.55,-17.17,-17.17,0,*61
1488010085.74,58825,7.31,72636.3,-13.55,-17.21,-17.17,0,*65
1488010087.0,58826,7.31,72630.3,-13.55,-16.65,-16.51,0,*64
1488010088.25,58827,7.31,72622.8,-13.55,-16.65,-16.59,0,*6D
1488010089.51,58828,7.31,72634.8,-13.59,-16.31,-16.23,0,*62
1488010090.81,58829,7.31,72624.3,-13.57,-16.27,-16.27,0,*6E
1488010092.05,58830,7.31,72630.5,-13.57,-16.93,-16.93,0,*66
1488010093.32,58831,7.31,72638.0,-13.59,-16.65,-16.65,0,*69
1488010094.59,58832,7.31,72638.5,-13.57,-16.93,-17.03,0,*6C
1488010095.86,58833,7.31,72638.0,-13.59,-17.11,-17.21,0,*68
1488010097.1,58834,7.31,72642.8,-13.57,-16.93,-16.89,0,*69
1488010098.32,58835,7.31,72642.8,-13.59,-16.79,-16.79,0,*6D
1488010099.61,58836,7.31,72646.3,-13.57,-16.31,-16.27,0,*67
1488010100.86,58837,7.31,72646.5,-13.57,-16.03,-15.99,0,*61
1488010102.08,58838,7.31,72646.5,-13.59,-16.03,-15.95,0,*6C